Weather History for KDLP - April, 2014

Change the Weather History Date:

Sunday, April 6, 2014

  Actual Average Record
Temperature  
Mean Temperature 70 °F -  
Max Temperature 75 °F - - ()
Min Temperature 66 °F - - ()
Cooling Degree Days 6    
Growing Degree Days 20 (Base 50)    
Moisture  
Dew Point 71 °F    
Average Humidity 99    
Maximum Humidity 100    
Minimum Humidity 94    
Precipitation  
Precipitation 0.00 in - - ()
Sea Level Pressure  
Sea Level Pressure 29.83 in    
Wind  
Wind Speed 12 mph (SSE)    
Max Wind Speed 21 mph    
Max Gust Speed 18 mph    
Visibility 2 miles    
Events Fog    
T = Trace of Precipitation, MM = Missing Value Source: NWS Daily Summary

Daily Weather History Graph

Daily Weather History Graph

Search for Another Location

Airport or City:

Trip Planner

Search our weather history database for the weather conditions in past years. The results will help you decide how hot, cold, wet, or windy it might be!

Date:

Astronomy

Apr. 06, 2014 Rise Set
Actual Time 6:42 AM CDT 7:19 PM CDT
Civil Twilight 6:18 AM CDT 7:43 PM CDT
Nautical Twilight 5:50 AM CDT 8:11 PM CDT
Astronomical Twilight 5:21 AM CDT 8:40 PM CDT
Moon 11:57 AM CDT (4/6) 1:00 AM CDT (4/6)
Length of Visible Light 13h 25m
Length of Day
12h 37m
Waxing Crescent, 44% of the Moon is Illuminated
Apr 6
Waxing Crescent
Apr 7
First Quarter
Apr 15
Full
Apr 22
Last Quarter
Apr 29
New

Hourly Weather History & Observations

Time (CDT) Temp. Dew Point Humidity Pressure Visibility Wind Dir Wind Speed Gust Speed Precip Events Conditions
12:15 AM 66.2 °F 66.2 °F 100% 29.95 in 0.2 mi East 13.8 mph - N/A Fog Fog
12:35 AM 66.2 °F 66.2 °F 100% 29.95 in 0.2 mi East 12.7 mph - N/A Fog Fog
12:55 AM 66.2 °F 66.2 °F 100% 29.93 in 0.2 mi East 17.3 mph - N/A Fog Fog
1:15 AM 66.2 °F 66.2 °F 100% 29.92 in 0.2 mi East 17.3 mph - N/A Fog Fog
1:35 AM 68.0 °F 68.0 °F 100% 29.91 in 0.2 mi East 18.4 mph - N/A Fog Fog
1:55 AM 68.0 °F 68.0 °F 100% 29.89 in 0.5 mi ESE 19.6 mph - N/A Fog Fog
2:15 AM 68.0 °F 68.0 °F 100% 29.89 in 0.5 mi ESE 19.6 mph - N/A   Overcast
2:35 AM 68.0 °F 68.0 °F 100% 29.89 in 0.2 mi ESE 16.1 mph - N/A Fog Fog
2:55 AM 68.0 °F 68.0 °F 100% 29.87 in 0.2 mi ESE 17.3 mph - N/A Fog Fog
3:15 AM 69.8 °F 69.8 °F 100% 29.86 in 0.2 mi North - - N/A Fog Fog
3:35 AM 69.8 °F 69.8 °F 100% 29.84 in 0.2 mi North - - N/A Fog Fog
3:55 AM 68.0 °F 68.0 °F 100% 29.85 in 0.2 mi North - - N/A Fog Fog
4:15 AM 69.8 °F 69.8 °F 100% 29.85 in 0.2 mi North - - N/A Fog Fog
4:35 AM 68.0 °F 68.0 °F 100% 29.86 in 0.2 mi SE 5.8 mph - N/A Fog Fog
4:55 AM 69.8 °F 69.8 °F 100% 29.87 in 0.2 mi ESE 8.1 mph - N/A Fog Fog
5:15 AM 69.8 °F 69.8 °F 100% 29.87 in 0.2 mi Variable 5.8 mph 11.5 mph N/A Fog Fog
5:35 AM 69.8 °F 69.8 °F 100% 29.88 in 0.2 mi ESE 5.8 mph - N/A Fog Fog
5:55 AM 69.8 °F 69.8 °F 100% 29.88 in 0.2 mi Variable 3.5 mph - N/A Fog Fog
6:15 AM 69.8 °F 69.8 °F 100% 29.88 in 0.2 mi Calm Calm - N/A Fog Fog
6:35 AM 69.8 °F 69.8 °F 100% 29.89 in 0.2 mi Variable 3.5 mph - N/A Fog Fog
6:55 AM 69.8 °F 69.8 °F 100% 29.90 in 0.2 mi ESE 5.8 mph - N/A Fog Fog
7:15 AM 69.8 °F 69.8 °F 100% 29.90 in 0.2 mi ESE 4.6 mph - N/A Fog Fog
7:35 AM 69.8 °F 69.8 °F 100% 29.91 in 0.2 mi Variable 4.6 mph - N/A Fog Fog
7:55 AM 71.6 °F 71.6 °F 100% 29.91 in 0.2 mi Calm Calm - N/A Fog Fog
8:15 AM 69.8 °F 69.8 °F 100% 29.91 in 0.2 mi ESE 6.9 mph - N/A Fog Fog
8:35 AM 69.8 °F 69.8 °F 100% 29.90 in 0.2 mi SE 8.1 mph - N/A Fog Fog
8:55 AM 69.8 °F 69.8 °F 100% 29.90 in 0.2 mi SE 8.1 mph - N/A Fog Fog
9:15 AM 69.8 °F 69.8 °F 100% 29.90 in 0.2 mi SE 10.4 mph - N/A Fog Fog
9:35 AM 69.8 °F 69.8 °F 100% 29.88 in 0.2 mi North - - N/A Fog Fog
9:55 AM 69.8 °F 69.8 °F 100% 29.89 in 0.5 mi North - - N/A Fog Fog
10:15 AM 69.8 °F 69.8 °F 100% 29.89 in 0.2 mi SSE 8.1 mph - N/A Fog Fog
10:35 AM 69.8 °F 69.8 °F 100% 29.89 in 0.2 mi Variable 6.9 mph 13.8 mph N/A Fog Fog
10:55 AM 69.8 °F 69.8 °F 100% 29.87 in 0.2 mi SSE 8.1 mph 13.8 mph N/A Fog Fog
11:15 AM 69.8 °F 69.8 °F 100% 29.86 in 1.0 mi SSE 8.1 mph 16.1 mph N/A   Overcast
11:35 AM 71.6 °F 71.6 °F 100% 29.85 in 2.5 mi SE 9.2 mph - N/A   Scattered Clouds
11:55 AM 71.6 °F 71.6 °F 100% 29.85 in 3.0 mi SSE 9.2 mph - N/A   Clear
12:15 PM 71.6 °F 71.6 °F 100% 29.85 in 3.0 mi SSE 10.4 mph - N/A   Partly Cloudy
12:35 PM 71.6 °F 71.6 °F 100% 29.85 in 4.0 mi South 11.5 mph - N/A   Mostly Cloudy
12:55 PM 71.6 °F 71.6 °F 100% 29.85 in 3.0 mi SSE 8.1 mph - N/A   Overcast
1:15 PM 71.6 °F 71.6 °F 100% 29.84 in 3.0 mi SSE 8.1 mph - N/A   Overcast
1:35 PM 71.6 °F 71.6 °F 100% 29.82 in 2.5 mi South 12.7 mph 18.4 mph N/A   Overcast
1:55 PM 71.6 °F 71.6 °F 100% 29.81 in 3.0 mi South 12.7 mph - N/A   Overcast
2:15 PM 73.4 °F 73.4 °F 100% 29.80 in 4.0 mi South 12.7 mph - N/A   Mostly Cloudy
2:35 PM 71.6 °F 71.6 °F 100% 29.79 in 3.0 mi SSE 11.5 mph 17.3 mph N/A   Mostly Cloudy
2:55 PM 71.6 °F 71.6 °F 100% 29.78 in 3.0 mi SSE 10.4 mph 16.1 mph N/A   Mostly Cloudy
3:15 PM 71.6 °F 71.6 °F 100% 29.77 in 3.0 mi SSE 9.2 mph - N/A   Overcast
3:35 PM 71.6 °F 71.6 °F 100% 29.77 in 2.5 mi SSE 11.5 mph - N/A   Overcast
3:55 PM 71.6 °F 71.6 °F 100% 29.76 in 3.0 mi South 11.5 mph - N/A   Mostly Cloudy
4:15 PM 73.4 °F 73.4 °F 100% 29.75 in 3.0 mi South 11.5 mph - N/A   Overcast
4:35 PM 73.4 °F 73.4 °F 100% 29.75 in 2.5 mi South 11.5 mph - N/A   Overcast
4:55 PM 73.4 °F 73.4 °F 100% 29.74 in 4.0 mi SSE 13.8 mph - N/A   Mostly Cloudy
5:15 PM 73.4 °F 73.4 °F 100% 29.74 in 3.0 mi South 11.5 mph - N/A   Mostly Cloudy
5:35 PM 73.4 °F 73.4 °F 100% 29.74 in 3.0 mi South 11.5 mph - N/A   Mostly Cloudy
5:55 PM 75.2 °F 75.2 °F 100% 29.74 in 4.0 mi SSE 12.7 mph - N/A   Mostly Cloudy
6:15 PM 75.2 °F 73.4 °F 94% 29.75 in 6.0 mi South 13.8 mph - N/A   Mostly Cloudy
6:35 PM 75.2 °F 73.4 °F 94% 29.75 in 6.0 mi South 17.3 mph - N/A   Mostly Cloudy
6:55 PM 73.4 °F 73.4 °F 100% 29.75 in 6.0 mi South 18.4 mph - N/A   Mostly Cloudy
7:15 PM 73.4 °F 73.4 °F 100% 29.75 in 5.0 mi South 17.3 mph - N/A   Overcast
7:35 PM 75.2 °F 73.4 °F 94% 29.75 in 7.0 mi South 13.8 mph - N/A   Overcast
7:55 PM 75.2 °F 73.4 °F 94% 29.75 in 8.0 mi South 17.3 mph - N/A   Overcast
8:15 PM 75.2 °F 73.4 °F 94% 29.75 in 7.0 mi South 13.8 mph - N/A   Overcast
8:35 PM 75.2 °F 73.4 °F 94% 29.75 in 7.0 mi South 13.8 mph - N/A   Overcast
8:55 PM 75.2 °F 73.4 °F 94% 29.76 in 6.0 mi South 12.7 mph - N/A   Overcast
9:15 PM 75.2 °F 73.4 °F 94% 29.76 in 6.0 mi South 12.7 mph - N/A   Overcast
9:35 PM 75.2 °F 73.4 °F 94% 29.77 in 5.0 mi South 12.7 mph - N/A   Overcast
9:55 PM 75.2 °F 73.4 °F 94% 29.77 in 5.0 mi South 12.7 mph - N/A   Overcast
10:15 PM 73.4 °F 73.4 °F 100% 29.76 in 4.0 mi South 15.0 mph - N/A   Overcast
10:35 PM 73.4 °F 73.4 °F 100% 29.76 in 5.0 mi South 17.3 mph - N/A   Overcast
10:55 PM 73.4 °F 73.4 °F 100% 29.75 in 5.0 mi South 18.4 mph - N/A   Overcast
11:15 PM 73.4 °F 73.4 °F 100% 29.74 in 4.0 mi South 18.4 mph - N/A   Overcast
11:35 PM 73.4 °F 73.4 °F 100% 29.72 in 4.0 mi South 20.7 mph - N/A   Overcast